Hit Tracker is now ESPN Home Run Tracker! Hit Tracker founder Greg Rybarczyk is now collaborating with the ESPN Stats & Information Group to continue tracking all MLB home runs, and helping baseball fans know "How Far It Really Went!™" Please credit any information on this site to ESPN Stats & Information Group. For more information and analysis on home runs, please contact founder Greg Rybarczyk. E-Mail ESPN Home Run Tracker
Main Page | Ballparks | Park Overlays | Glossary | Highlight Homers | Feedback | Bio | 3 Types of HR's | AAA Home Run Derby Last Updated: June 24, 2017, 10:50 pm PST
If you want to know "How Far It Really Went!", then you've come to the right place! Welcome to the ESPN Home Run Tracker, where you can find accurate, transparently verifiable distances for every home run hit in MLB games. Please also check out the ESPN MLB Scoreboard throughout the 2017 season! Contact us at grybar@hittrackeronline.com.
Season:
Ballpark detail for Kauffman Stadium
Ballpark # of Home Runs HR per game Avg.
True
Distance
Avg.
Speed
Off
Bat
Avg.
Std.
Dist.
Kauffman Stadium 68 1.79 412.1 106.1 409.3

Scatter Plot of Home Runs Kauffman Stadium
 Overlay Ballpark:
Without range rings   With range rings

2017 Season Home Runs for Kauffman Stadium
Click headers to sort
Date Video Path Hitter Hitter
Team
Pitcher Pitcher
Team
INN Ballpark Type/
Luck
True
Dist.
Speed
Off
Bat
Elev.
Angle
Horiz.
Angle
Apex Impact Due To: Std.
Dist.
#
Parks
Wind Temp. ^ Alt.
04/30/17 Video View Sano, Miguel MIN Hammel, Jason KC 3 Kauffman Sta... PL 406 103.9 33.1 107.1 121 0 -6 -6 406 30
04/28/17 Video View Moss, Brandon KC Boshers, Buddy MIN 7 Kauffman Sta... PL 421 108.8 30.2 78.9 131 -17 -5 3 441 30
04/28/17 Video View Sano, Miguel MIN Kennedy, Ian KC 4 Kauffman Sta... PL 381 101.2 32.2 67.4 105 -3 -4 3 385 30
05/01/17 Video View Bonifacio, Jorge KC Covey, Dylan CHW 4 Kauffman Sta... ND 433 109.1 28.3 107.5 102 1 -3 2 433 30
05/01/17 Video View Hosmer, Eric KC Covey, Dylan CHW 7 Kauffman Sta... JE 406 103.6 25.4 100.5 81 0 -2 1 407 30
05/03/17 Video View Abreu, Jose CHW Strahm, Matt KC 9 Kauffman Sta... JE 394 107.4 24.0 112.1 66 0 -2 1 395 30
05/05/17 Video View Hosmer, Eric KC Salazar, Danny CLE 5 Kauffman Sta... ND 469 112.1 27.3 84.3 116 0 -2 3 468 30
05/12/17 Video View Moss, Brandon KC Bundy, Dylan BAL 5 Kauffman Sta... ND 466 113.4 29.3 78.0 127 0 -2 4 463 30
04/13/17 Video View Davis, Rajai OAK Herrera, Kelvin KC 9 Kauffman Sta... PL 386 105.7 26.9 123.4 72 0 -1 1 385 30
04/28/17 Video View Perez, Salvador KC Gibson, Kyle MIN 2 Kauffman Sta... JE 388 106.7 24.3 114.0 67 -2 -1 1 390 30
04/30/17 Video View Cain, Lorenzo KC Hughes, Phil MIN 5 Kauffman Sta... JE 394 110.9 21.3 110.1 56 -1 -1 1 394 30
04/30/17 Video View Merrifield, Whit KC Kintzler, Brandon MIN 9 Kauffman Sta... JE/L 367 105.4 24.0 122.3 58 0 -1 1 367 30
05/04/17 Video View Davidson, Matt CHW Kennedy, Ian KC 2 Kauffman Sta... PL 430 102.2 32.4 100.1 109 24 -1 3 405 30
04/12/17 Video View Mondesi, Raul KC Montas, Frankie OAK 9 Kauffman Sta... PL 436 106.2 25.3 88.6 91 0 0 1 435 30
04/10/17 Video View Davis, Khris OAK Kennedy, Ian KC 4 Kauffman Sta... PL 413 102.5 30.1 78.5 106 3 0 2 408 29
04/14/17 Video View Perez, Salvador KC Guerra, Deolis LAA 6 Kauffman Sta... PL 424 110.1 24.7 108.2 78 -1 0 1 423 30
04/18/17 Video View Merrifield, Whit KC Cain, Matt SF 5 Kauffman Sta... JE 390 102.0 27.3 70.6 79 0 0 1 388 29
05/04/17 Video View Abreu, Jose CHW Kennedy, Ian KC 1 Kauffman Sta... JE 423 109.6 20.2 92.6 60 -4 0 0 426 25
05/05/17 Video View Encarnacion, Edwin CLE Hammel, Jason KC 4 Kauffman Sta... JE 391 103.7 25.6 109.3 73 0 0 1 390 30
05/13/17 Video View Pena, Francisco BAL Karns, Nathan KC 5 Kauffman Sta... ND 429 109.7 26.0 111.6 76 7 0 2 420 30
05/14/17 Video View Soler, Jorge KC Bleier, Richard BAL 6 Kauffman Sta... ND 470 120.4 17.2 91.1 62 3 0 0 466 30
05/16/17 Video View Sanchez, Gary NYY Hammel, Jason KC 3 Kauffman Sta... JE 425 106.3 21.9 90.1 76 3 0 1 421 22
05/29/17 Video View Hosmer, Eric KC Rodriguez, Francisco DET 7 Kauffman Sta... PL 382 101.9 30.6 120.3 88 0 0 2 380 30
05/31/17 Video View Avila, Alex DET Maness, Seth KC 4 Kauffman Sta... JE 382 99.8 29.0 109.9 84 1 0 2 380 28
06/06/17 Video View Gordon, Alex KC Paulino, David HOU 3 Kauffman Sta... PL 435 109.4 21.0 88.0 72 1 0 0 433 28
06/07/17 Video View Cain, Lorenzo KC Diaz, Dayan HOU 3 Kauffman Sta... JE 423 107.0 21.6 90.2 69 0 0 0 423 26
06/08/17 Video View Altuve, Jose HOU Herrera, Kelvin KC 9 Kauffman Sta... JE 425 107.8 22.0 94.9 71 0 0 1 425 26
06/24/17 Video View Tulowitzki, Troy TOR Vargas, Jason KC 2 Kauffman Sta... PL 414 106.7 27.6 111.6 86 1 0 2 411 30
04/14/17 Video View Moustakas, Mike KC Ramirez, J.C. LAA 1 Kauffman Sta... PL 424 103.5 28.9 85.1 107 -2 1 2 422 26
04/15/17 Video View Moustakas, Mike KC Alvarez, Jose LAA 8 Kauffman Sta... PL 417 104.2 27.4 78.6 93 0 1 2 415 29
05/06/17 Video View Lindor, Francisco CLE Herrera, Kelvin KC 9 Kauffman Sta... PL 399 102.8 30.1 67.9 95 1 1 2 394 30
05/13/17 Video View Davis, Chris BAL Maness, Seth KC 6 Kauffman Sta... JE/L 378 97.5 37.1 111.6 118 20 1 4 354 8
05/13/17 Video View Moss, Brandon KC Asher, Alec BAL 6 Kauffman Sta... ND 409 113.8 23.7 55.4 64 2 1 1 406 30
05/14/17 Video View Moustakas, Mike KC Gausman, Kevin BAL 4 Kauffman Sta... JE 382 114.2 20.1 60.3 50 -2 1 2 381 29
05/14/17 Video View Butera, Drew KC Givens, Mychal BAL 7 Kauffman Sta... JE/L 407 102.7 25.7 97.6 87 -4 1 1 408 30
05/17/17 Video View Merrifield, Whit KC Pineda, Michael NYY 5 Kauffman Sta... PL 428 104.6 30.3 100.6 109 0 1 3 420 30
05/29/17 Video View Martinez, J.D. DET Minor, Mike KC 5 Kauffman Sta... ND 433 114.0 26.7 121.2 83 0 1 2 430 30
05/31/17 Video View Martinez, Victor DET Kennedy, Ian KC 2 Kauffman Sta... PL 385 105.4 26.7 58.1 72 -1 1 1 384 30
06/03/17 Video View Santana, Carlos CLE Hammel, Jason KC 2 Kauffman Sta... PL 395 104.3 25.4 71.0 72 0 1 1 393 29
06/03/17 Video View Cain, Lorenzo KC Goody, Nick CLE 5 Kauffman Sta... PL 424 109.9 24.3 107.4 75 0 1 1 421 30
06/05/17 Video View Gurriel, Yulieski HOU Herrera, Kelvin KC 9 Kauffman Sta... PL 413 107.8 25.6 110.7 76 1 1 1 410 30
06/06/17 Video View Beltran, Carlos HOU Junis, Jake KC 4 Kauffman Sta... PL 375 100.8 32.6 62.2 101 -6 1 3 377 30
06/20/17 Video View Bonifacio, Jorge KC Sale, Chris BOS 9 Kauffman Sta... PL 439 106.5 26.0 94.7 94 0 1 2 436 30
06/21/17 Video View Bogaerts, Xander BOS Kennedy, Ian KC 4 Kauffman Sta... JE 401 103.9 24.8 103.0 75 -2 1 1 401 30
06/24/17 Video View Pillar, Kevin TOR Vargas, Jason KC 7 Kauffman Sta... PL 407 105.1 26.2 108.8 78 3 1 1 402 30
04/15/17 Video View Moss, Brandon KC Shoemaker, Matt LAA 4 Kauffman Sta... PL 403 105.3 33.9 68.6 126 -3 2 4 400 30
05/13/17 Video View Pena, Francisco BAL Karns, Nathan KC 3 Kauffman Sta... PL 396 100.4 34.3 117.4 102 19 2 3 372 30
05/14/17 Video View Joseph, Caleb BAL Young, Chris KC 4 Kauffman Sta... PL 414 107.3 28.2 112.4 93 -4 2 2 414 30
05/16/17 Video View Carter, Chris NYY Hammel, Jason KC 4 Kauffman Sta... JE 414 103.0 31.2 93.2 124 -9 2 3 418 27
05/17/17 Video View Hicks, Aaron NYY Vargas, Jason KC 4 Kauffman Sta... ND 396 104.8 33.9 120.7 112 0 2 3 391 30
05/17/17 Video View Perez, Salvador KC Pineda, Michael NYY 4 Kauffman Sta... PL 444 106.7 29.8 95.5 117 2 2 3 438 30
05/18/17 Video View Moustakas, Mike KC Montgomery, Jordan NYY 5 Kauffman Sta... JE 377 101.3 36.0 68.5 129 -4 2 4 374 29
05/29/17 Video View Merrifield, Whit KC Norris, Daniel DET 3 Kauffman Sta... ND 401 104.7 31.5 121.8 94 5 2 3 392 30
06/02/17 Video View Moustakas, Mike KC Tomlin, Josh CLE 8 Kauffman Sta... PL 401 103.7 35.7 74.7 138 4 2 5 391 30
06/04/17 Video View Kipnis, Jason CLE Young, Chris (P) KC 6 Kauffman Sta... PL 421 104.1 30.7 78.7 113 0 2 3 416 29
06/06/17 Video View Moustakas, Mike KC Giles, Ken HOU 9 Kauffman Sta... ND 418 110.1 34.1 69.2 142 -7 2 5 418 30
06/07/17 Video View McCann, Brian HOU Vargas, Jason KC 2 Kauffman Sta... JE 421 102.5 27.3 89.9 95 0 2 2 418 26
06/19/17 Video View Hosmer, Eric KC Velazquez, Hector BOS 3 Kauffman Sta... PL 446 106.6 26.1 93.2 91 4 2 2 438 30
06/19/17 Video View Bradley Jr., Jackie BOS Hammel, Jason KC 4 Kauffman Sta... ND 424 108.8 27.5 67.2 87 2 2 2 420 30
06/21/17 Video View Benintendi, Andrew BOS Kennedy, Ian KC 4 Kauffman Sta... ND 458 110.9 25.0 83.1 97 -3 2 2 456 30
06/24/17 Video View Hosmer, Eric KC Estrada, Marco TOR 4 Kauffman Sta... JE/L 390 101.0 36.9 74.2 134 12 2 4 373 25
05/06/17 Video View Santana, Carlos CLE Herrera, Kelvin KC 9 Kauffman Sta... PL 414 103.1 34.0 79.8 131 5 3 4 403 27
06/03/17 Video View Zimmer, Bradley CLE Hammel, Jason KC 2 Kauffman Sta... JE 416 102.2 31.8 83.2 118 1 3 3 410 27
06/05/17 Video View McCann, Brian HOU Kennedy, Ian KC 4 Kauffman Sta... PL 420 104.1 29.2 77.2 101 1 3 2 414 29
06/20/17 Video View Moustakas, Mike KC Sale, Chris BOS 2 Kauffman Sta... PL 427 107.5 27.8 72.1 93 0 3 2 422 30
05/14/17 Video View Davis, Chris BAL Young, Chris KC 2 Kauffman Sta... PL 393 111.5 32.9 68.5 147 -51 4 5 430 30
06/05/17 Video View Bonifacio, Jorge KC Hoyt, James HOU 7 Kauffman Sta... PL 413 107.0 34.8 111.2 134 2 5 5 402 30
06/21/17 Video View Perez, Salvador KC Scott, Robby BOS 8 Kauffman Sta... PL 396 105.1 34.3 110.8 130 -16 8 4 398 30


About HitTracker | Contact Us
© 2006-2017 HitTrackerOnline